Weather History for Milton, FL

Change the Weather History Date:

Friday, September 28, 2012

  Actual Average (KNSE) Record (KNSE)
Temperature  
Mean Temperature 76 °F -  
Max Temperature 90 °F 81 °F 91 °F (2012)
Min Temperature 64 °F 63 °F 55 °F (2000)
Cooling Degree Days 12    
Growing Degree Days 26 (Base 50)    
Moisture  
Dew Point 68 °F    
Average Humidity 78    
Maximum Humidity 94    
Minimum Humidity 46    
Precipitation  
Precipitation 0.00 in - - ()
Sea Level Pressure  
Sea Level Pressure 30.02 in    
Wind  
Wind Speed 1 mph (SSE)    
Max Wind Speed 7 mph    
Max Gust Speed -    
Visibility 9 miles    
Events      
Averages and records for this station are not official NWS values.
T = Trace of Precipitation, MM = Missing Value Source: NWS Daily Summary

Daily Weather History Graph

Daily Weather History Graph

Search for Another Location

Airport:

Trip Planner

Search our weather history database for the weather conditions in past years. The results will help you decide how hot, cold, wet, or windy it might be!

Date:

Astronomy

Sep. 28, 2012 Rise Set
Actual Time 6:40 AM CDT 6:36 PM CDT
Civil Twilight 6:16 AM CDT 7:00 PM CDT
Nautical Twilight 5:48 AM CDT 7:28 PM CDT
Astronomical Twilight 5:20 AM CDT 7:56 PM CDT
Moon 5:37 PM CDT (9/28) 5:13 AM CDT (9/28)
Length of Visible Light 12h 44m
Length of Day
11h 56m
Waxing Gibbous, 98% of the Moon is Illuminated
Sep 28
Waxing Gibbous
Sep 29
Full
Oct 8
Last Quarter
Oct 15
New
Oct 21
First Quarter

Hourly Weather History & Observations

Time (CDT) Temp. Heat Index Dew Point Humidity Pressure Visibility Wind Dir Wind Speed Gust Speed Precip Events Conditions
12:56 AM 69.1 °F - 66.9 °F 93% 30.04 in 10.0 mi Calm Calm - N/A   Clear
1:56 AM 70.0 °F - 66.9 °F 90% 30.03 in 10.0 mi Calm Calm - N/A   Clear
2:56 AM 68.0 °F - 66.0 °F 93% 30.02 in 9.0 mi Calm Calm - N/A   Clear
3:56 AM 66.0 °F - 64.0 °F 93% 30.02 in 10.0 mi Calm Calm - N/A   Clear
4:51 AM 66.2 °F - 64.4 °F 94% 30.06 in 1.8 mi Calm Calm - N/A   Clear
4:56 AM 66.9 °F - 64.9 °F 93% 30.02 in 1.0 mi Calm Calm - N/A   Clear
5:29 AM 66.2 °F - 64.4 °F 94% 30.07 in 2.5 mi Calm Calm - N/A   Clear
5:36 AM 66.2 °F - 64.4 °F 94% 30.06 in 4.0 mi Calm Calm - N/A   Clear
5:56 AM 64.9 °F - 63.0 °F 93% 30.03 in 8.0 mi Calm Calm - N/A   Clear
6:56 AM 64.9 °F - 63.0 °F 93% 30.04 in 10.0 mi Calm Calm - N/A   Clear
7:56 AM 72.0 °F - 68.0 °F 87% 30.05 in 10.0 mi Calm Calm - N/A   Clear
8:56 AM 75.9 °F - 70.0 °F 82% 30.06 in 10.0 mi Calm Calm - N/A   Clear
9:56 AM 80.1 °F 82.9 °F 69.1 °F 69% 30.06 in 10.0 mi Calm Calm - N/A   Clear
10:56 AM 82.9 °F 85.8 °F 68.0 °F 60% 30.06 in 10.0 mi East 3.5 mph - N/A   Scattered Clouds
11:12 AM 82.4 °F 85.4 °F 68.0 °F 62% 30.09 in 10.0 mi ESE 4.6 mph - N/A   Mostly Cloudy
11:26 AM 84.2 °F 87.3 °F 68.0 °F 58% 30.09 in 10.0 mi South 6.9 mph - N/A   Scattered Clouds
11:56 AM 86.0 °F 89.4 °F 68.0 °F 55% 30.04 in 10.0 mi Variable 3.5 mph - N/A   Clear
12:56 PM 87.1 °F 90.6 °F 68.0 °F 53% 30.01 in 10.0 mi Calm Calm - N/A   Scattered Clouds
1:56 PM 87.1 °F 89.9 °F 66.9 °F 51% 29.99 in 10.0 mi Calm Calm - N/A   Scattered Clouds
2:56 PM 89.1 °F 91.3 °F 66.0 °F 46% 29.96 in 10.0 mi Variable 4.6 mph - N/A   Mostly Cloudy
3:56 PM 87.1 °F 89.9 °F 66.9 °F 51% 29.94 in 10.0 mi South 6.9 mph - N/A   Scattered Clouds
4:56 PM 84.9 °F 90.1 °F 71.1 °F 63% 29.94 in 10.0 mi Variable 5.8 mph - N/A   Clear
5:56 PM 81.0 °F 84.9 °F 71.1 °F 72% 29.95 in 10.0 mi South 5.8 mph - N/A   Clear
6:56 PM 77.0 °F - 71.1 °F 82% 29.96 in 10.0 mi South 3.5 mph - N/A   Clear
7:56 PM 77.0 °F - 71.1 °F 82% 29.96 in 10.0 mi Calm Calm - N/A   Clear
8:56 PM 73.9 °F - 71.1 °F 91% 29.98 in 10.0 mi Calm Calm - N/A   Clear
9:56 PM 73.9 °F - 71.1 °F 91% 29.99 in 10.0 mi Calm Calm - N/A   Clear
10:56 PM 75.0 °F - 71.1 °F 87% 29.99 in 10.0 mi Calm Calm - N/A   Partly Cloudy
11:56 PM 73.9 °F - 71.1 °F 91% 29.98 in 10.0 mi Calm Calm - N/A   Clear